Regional Weather Roundup
Issued by NWS

Home | Current Version | Previous Version | Text Only | Print | Product List | Glossary On
Versions: 1 2 3 4 5 6 7 8 9 10 11 12 13 14 15 16 17 18 19 20 21 22 23 24 25 26 27 28 29 30 31 32 33 34 35 36 37 38 39 40 41 42 43 44 45 46 47 48 49 50
000
ASUS43 KLMK 290010
RWRKY
KENTUCKY REGIONAL WEATHER ROUNDUP
NATIONAL WEATHER SERVICE LOUISVILLE KY
800 PM EDT SAT MAR 28 2015

NOTE "FAIR" INDICATES FEW OR NO CLOUDS BELOW 12,000 FEET
WITH NO SIGNIFICANT WEATHER AND/OR OBSTRUCTIONS TO VISIBILITY.

KYZ001>023-026-027-061>063-070>075-290100-
WESTERN AND SOUTH CENTRAL KENTUCKY

CITY           SKY/WX    TMP DP  RH WIND       PRES   REMARKS
PADUCAH        CLEAR     42  18  37 E6        30.27S
HENDERSON      CLEAR     39  16  38 NE3       30.30S
OWENSBORO      CLEAR     40  17  39 VRB5      30.30S
HOPKINSVILLE   CLEAR     41  17  38 N6        30.27R
BOWLING GREEN  CLEAR     42  10  27 N5        30.28R
GLASGOW        CLEAR     38  16  40 E6        30.27R WCI  34
$$

KYZ024-025-028>034-038-045-046-053-290100-
NORTH CENTRAL KENTUCKY

CITY           SKY/WX    TMP DP  RH WIND       PRES   REMARKS
LOUISVILLE/SDF CLEAR     39  12  33 N7        30.30R WCI  34
LOUISVILLE/LOU CLEAR     39  10  30 N5        30.30R
FORT KNOX      CLEAR     37  13  37 NW5       30.26R WCI  34
$$

KYZ035>037-039>044-047>052-055>060-089>105-290100-
NORTHEAST KENTUCKY

CITY           SKY/WX    TMP DP  RH WIND       PRES   REMARKS
LEXINGTON      CLEAR     34  12  40 N6        30.27S WCI  29
COVINGTON      CLEAR     34   9  35 N7        30.29R WCI  28
FRANKFORT      CLEAR     37  11  34 NW3       30.27R
$$

KYZ054-064>069-076>088-106>120-290100-
SOUTHEAST KENTUCKY

CITY           SKY/WX    TMP DP  RH WIND       PRES   REMARKS
JACKSON        CLEAR     32   8  36 N3        30.25R
LONDON         CLEAR     36   9  32 NE7       30.25R WCI  30
SOMERSET       CLEAR     34  12  40 NE6       30.28S WCI  29
MIDDLESBORO    CLEAR     38  12  34 N12       30.24R WCI  30
MONTICELLO     CLEAR     37  17  44 N6        30.29R WCI  32
$$



USA.gov is the U.S. government's official web portal to all federal, state and local government web resources and services.